Weather History for Gulkana, AK

Change the Weather History Date:

Tuesday, July 22, 2014

  Actual Average Record
Temperature  
Mean Temperature 55 °F -  
Max Temperature 73 °F 67 °F 85 °F (1955)
Min Temperature 37 °F 45 °F 32 °F (2005)
Degree Days  
Heating Degree Days 10    
Growing Degree Days 5 (Base 50)    
Moisture  
Dew Point 39 °F    
Average Humidity 54    
Maximum Humidity 93    
Minimum Humidity 18    
Precipitation  
Precipitation 0.00 in - - ()
Sea Level Pressure  
Sea Level Pressure 29.89 in    
Wind  
Wind Speed 5 mph (SSE)    
Max Wind Speed 20 mph    
Max Gust Speed 28 mph    
Visibility 10 miles    
Events      
Averages and records for this station are not official NWS values.
T = Trace of Precipitation, MM = Missing Value Source: NWS Daily Summary

Daily Weather History Graph

Daily Weather History Graph

Search for Another Location

Airport:

Trip Planner

Search our weather history database for the weather conditions in past years. The results will help you decide how hot, cold, wet, or windy it might be!

Date:

Astronomy

Jul. 22, 2014 Rise Set
Actual Time 4:40 AM AKDT 10:54 PM AKDT
Civil Twilight 3:10 AM AKDT 12:21 AM AKDT
Nautical Twilight Sun does not rise Sun does not rise
Astronomical Twilight Sun does not rise Sun does not rise
Moon 1:38 AM AKDT (7/22) 7:27 PM AKDT (7/22)
Length of Visible Light 21h 11m
Length of Day
18h 13m
Waning Crescent, 15% of the Moon is Illuminated
Jul 22
Waning Crescent
Jul 26
New
Aug 3
First Quarter
Aug 10
Full
Aug 17
Last Quarter

Hourly Weather History & Observations

Time (AKDT) Temp. Dew Point Humidity Pressure Visibility Wind Dir Wind Speed Gust Speed Precip Events Conditions
12:53 AM 46.9 °F 41.0 °F 80% 29.98 in 10.0 mi Calm Calm - N/A   Clear
1:53 AM 44.1 °F 39.9 °F 85% 29.99 in 10.0 mi Calm Calm - N/A   Clear
2:53 AM 42.1 °F 37.9 °F 85% 30.00 in 10.0 mi Calm Calm - N/A   Clear
3:53 AM 39.9 °F 37.0 °F 89% 29.99 in 10.0 mi Calm Calm - N/A   Clear
4:53 AM 37.9 °F 36.0 °F 93% 29.99 in 10.0 mi Calm Calm - N/A   Clear
5:53 AM 39.9 °F 37.9 °F 93% 29.99 in 10.0 mi Calm Calm - N/A   Clear
6:53 AM 46.9 °F 41.0 °F 80% 29.97 in 10.0 mi Calm Calm - N/A   Clear
7:53 AM 51.1 °F 43.0 °F 74% 29.96 in 10.0 mi SE 3.5 mph - N/A   Clear
8:53 AM 54.0 °F 44.1 °F 69% 29.94 in 10.0 mi SE 5.8 mph - N/A   Clear
9:53 AM 57.9 °F 45.0 °F 62% 29.92 in 10.0 mi Variable 5.8 mph - N/A   Clear
10:53 AM 62.1 °F 46.0 °F 56% 29.91 in 10.0 mi ESE 6.9 mph - N/A   Clear
12:53 PM 70.0 °F 42.1 °F 36% 29.87 in 10.0 mi South 17.3 mph 24.2 mph N/A   Clear
1:53 PM 71.1 °F 41.0 °F 34% 29.86 in 10.0 mi South 13.8 mph - N/A   Clear
2:53 PM 72.0 °F 41.0 °F 33% 29.85 in 10.0 mi SE 19.6 mph 27.6 mph N/A   Clear
3:53 PM 73.9 °F 39.0 °F 28% 29.83 in 10.0 mi SE 15.0 mph 24.2 mph N/A   Clear
4:53 PM 73.0 °F 35.1 °F 25% 29.82 in 10.0 mi South 15.0 mph 25.3 mph N/A   Clear
5:53 PM 72.0 °F 37.0 °F 28% 29.81 in 10.0 mi SSE 17.3 mph 24.2 mph N/A   Clear
6:53 PM 71.1 °F 36.0 °F 28% 29.79 in 10.0 mi South 17.3 mph 26.5 mph N/A   Clear
7:53 PM 70.0 °F 37.0 °F 30% 29.78 in 10.0 mi SSE 18.4 mph 24.2 mph N/A   Clear
8:53 PM 66.9 °F 37.0 °F 33% 29.79 in 10.0 mi South 16.1 mph 24.2 mph N/A   Clear
9:53 PM 62.1 °F 37.0 °F 39% 29.80 in 10.0 mi South 10.4 mph - N/A   Clear
10:53 PM 59.0 °F 37.9 °F 46% 29.79 in 10.0 mi SE 8.1 mph - N/A   Clear
11:53 PM 59.0 °F 37.0 °F 44% 29.79 in 10.0 mi SSE 12.7 mph - N/A   Clear